Powrót do katalogu

COSMOS 2251 DEB

AktywnyLEO
NORAD 33982·DEBRIS·🇷🇺 Russia

Wystrzelony Jun 16, 1993 z Plesetsk Cosmodrome

Loading…

Następne Przeloty (najbliższe 24 godziny)

TLE

ŚwieżeSource: Space-Track

Epoka: Sep 14, 2026, 05:26 UTC

1 33982U 93036FR  26257.22686639  .00000985  00000-0  19810-3 0  9994
2 33982  74.0694 194.5365 0074369 169.1135 261.7328 14.61293918931821

Śledź COSMOS 2251 DEB w czasie rzeczywistym z AllMySat

Download on the App Store